Flag for Poland Weather past 2 weeks in Szczecin, Poland

Now
48 °F

Clear.


Feels Like: 48 °F
Forecast: 52 / 68 °F
Wind: 2 mph from Southeast

Location: Szczecin Airport

Current Time: Sep 3, 2015 at 4:34:28 AM

Latest Report: Sep 3, 2015 at 4:00 AM


Visibility: 10 mi

Pressure: 29.98 "Hg

Humidity: 94%

Dew point: 46 °F

Location of SzczecinLocation

Historic Weather in Szczecin — Graph

°F

Szczecin temperature yesterday

Maximum temperature yesterday: 68 °F (at 2:30 PM)
Minimum temperature yesterday: 52 °F (at 11:30 PM)
Average temperature yesterday: 61 °F

Past Weeks' High & Low Weather Summary

 TemperatureHumidityPressure
High91 °F (Aug 31, 3:00 PM)100% (Aug 28, 5:00 AM)30.36 "Hg (Aug 28, 5:00 AM)
Low48 °F (Sep 3, 3:00 AM)23% (Aug 19, 5:30 PM)29.68 "Hg (Sep 1, 2:30 AM)
Average67 °F61%30.02 "Hg
* Reported Aug 19 3:00 AM — Sep 3 3:00 AM, Szczecin, Weather by CustomWeather, © 2015

Note: Actual official high and low records may vary slightly from our data, if they occured in-between our weather recording intervals... More about our weather records

Advertising

Szczecin weather history for previous 24 hours

 ConditionsComfort  
Time TempWeatherWind HumidityBarometerVisibility
3:00 AM
Thu, Sep 3
48 °FClear.3 mph94%29.98 "Hg10 mi
2:30 AM50 °FClear.3 mph88%29.98 "Hg10 mi
2:00 AM50 °FClear.3 mph88%29.98 "Hg10 mi
1:30 AM50 °FClear.3 mph88%29.98 "Hg10 mi
1:00 AM50 °FClear.3 mph88%29.98 "Hg10 mi
11:30 PM
Wed, Sep 2
52 °FClear.No wind88%29.98 "Hg10 mi
11:00 PM54 °FClear.No wind82%29.98 "Hg10 mi
10:30 PM54 °FClear.3 mph82%29.98 "Hg10 mi
10:00 PM55 °FClear.3 mph77%29.98 "Hg10 mi
9:30 PM55 °FClear.2 mph77%29.98 "Hg10 mi
9:00 PM59 °FClear.2 mph68%29.98 "Hg10 mi
8:30 PM61 °FSunny.2 mph63%29.98 "Hg10 mi
8:00 PM63 °FSunny.3 mph59%29.98 "Hg10 mi
7:30 PM64 °FSunny.7 mph52%29.95 "Hg10 mi
7:00 PM66 °FSunny.7 mph52%29.95 "Hg10 mi
6:30 PM68 °FSunny.9 mph46%29.95 "Hg10 mi
6:00 PM68 °FSunny.10 mph43%29.95 "Hg10 mi
5:30 PM68 °FSunny.9 mph46%29.95 "Hg10 mi
5:00 PM68 °FSunny.12 mph46%29.95 "Hg10 mi
4:30 PM68 °FScattered clouds.8 mph43%29.95 "HgN/A
4:00 PM66 °FScattered clouds.8 mph49%29.95 "HgN/A
3:30 PM66 °FScattered clouds.7 mph52%29.95 "HgN/A
3:00 PM68 °FScattered clouds.9 mph49%29.95 "HgN/A
2:30 PM68 °FScattered clouds.10 mph53%29.95 "HgN/A
2:00 PM66 °FScattered clouds.10 mph56%29.95 "HgN/A
1:30 PM64 °FScattered clouds.12 mph56%29.95 "HgN/A
1:00 PM64 °FScattered clouds.10 mph56%29.95 "HgN/A
12:30 PM64 °FScattered clouds.13 mph60%29.95 "HgN/A
12:00 PM64 °FScattered clouds.14 mph64%29.95 "HgN/A
11:30 AM63 °FScattered clouds.10 mph68%29.95 "HgN/A
11:00 AM63 °FScattered clouds.10 mph68%29.95 "HgN/A
10:30 AM61 °FScattered clouds.12 mph72%29.95 "HgN/A
10:00 AM61 °FScattered clouds.9 mph77%29.95 "HgN/A
9:30 AM59 °FScattered clouds.10 mph82%29.95 "HgN/A
9:00 AM59 °FScattered clouds.10 mph82%29.95 "HgN/A
8:30 AM57 °FScattered clouds.10 mph88%29.92 "HgN/A
8:00 AM57 °FPassing clouds.7 mph88%29.92 "HgN/A
7:30 AM55 °FPassing clouds.7 mph94%29.92 "HgN/A
7:00 AM54 °FPassing clouds.5 mph94%29.92 "HgN/A
6:30 AM54 °FPassing clouds.5 mph94%29.92 "HgN/A
6:00 AM55 °FPassing clouds.5 mph94%29.89 "HgN/A
5:30 AM55 °FClear.6 mph94%29.89 "Hg10 mi
5:00 AM55 °FClear.7 mph94%29.89 "Hg10 mi
4:30 AM57 °FClear.9 mph94%29.89 "Hg10 mi
4:00 AM57 °FClear.10 mph94%29.89 "Hg10 mi
Weather by CustomWeather, © 2015

See weather overviewHow to use our weather pages